HVK374 OKKK-OMDB

Flight info

Callsign HVK374
Flight time 1h 29m
Altitude 31000
Route SESRU M677 VUTEB
Aircraft A400/H-SDE2E3FGHIJ4J5M1RWXY/LB1D1

Departure

Time 2026-05-08 11:32
Airport Kuwait International Airport (OKKK)

Arrival

Time 2026-05-08 13:02
Airport Dubai International Airport (OMDB)
Time Latitude Longitude Altitude Speed Heading
2026-05-08 11:03 29.23833 47.95456 182 ft 0 kts 249°
2026-05-08 11:20 29.23838 47.95471 192 ft 4 kts 249°
2026-05-08 11:20 29.23853 47.95514 200 ft 7 kts 249°
2026-05-08 11:21 29.23868 47.95561 200 ft 5 kts 248°
2026-05-08 11:21 29.23880 47.95594 203 ft 2 kts 227°
2026-05-08 11:21 29.23888 47.95601 205 ft 0 kts 155°
2026-05-08 11:24 29.23836 47.95631 199 ft 20 kts 153°
2026-05-08 11:25 29.23650 47.95736 201 ft 38 kts 154°
2026-05-08 11:25 29.23376 47.95883 201 ft 45 kts 155°
2026-05-08 11:25 29.23119 47.96031 202 ft 38 kts 153°
2026-05-08 11:25 29.22900 47.96152 200 ft 33 kts 155°
2026-05-08 11:26 29.22816 47.96232 207 ft 11 kts 113°
2026-05-08 11:26 29.22830 47.96351 214 ft 19 kts 63°
2026-05-08 11:26 29.22913 47.96481 225 ft 16 kts 24°
2026-05-08 11:26 29.23032 47.96528 230 ft 16 kts 46°
2026-05-08 11:27 29.23051 47.96586 224 ft 0 kts 71°
2026-05-08 11:27 29.23052 47.96586 224 ft 1 kts 71°
2026-05-08 11:28 29.23087 47.96685 231 ft 25 kts 67°
2026-05-08 11:28 29.23138 47.96849 226 ft 16 kts 90°
2026-05-08 11:28 29.23095 47.96900 228 ft 9 kts 154°
2026-05-08 11:28 29.22993 47.96958 221 ft 23 kts 154°
2026-05-08 11:29 29.22816 47.97054 223 ft 32 kts 155°
2026-05-08 11:29 29.22600 47.97169 222 ft 37 kts 154°
2026-05-08 11:29 29.22358 47.97292 222 ft 40 kts 157°
2026-05-08 11:29 29.22112 47.97431 224 ft 41 kts 155°
2026-05-08 11:30 29.21843 47.97574 222 ft 44 kts 155°
2026-05-08 11:30 29.21578 47.97704 219 ft 35 kts 176°
2026-05-08 11:30 29.21426 47.97787 222 ft 22 kts 142°
2026-05-08 11:30 29.21308 47.97854 225 ft 17 kts 175°
2026-05-08 11:31 29.21244 47.97802 223 ft 14 kts 247°
2026-05-08 11:31 29.21288 47.97657 223 ft 29 kts 309°
2026-05-08 11:31 29.21592 47.97457 220 ft 99 kts 335°
2026-05-08 11:31 29.22565 47.96937 265 ft 193 kts 334°
2026-05-08 11:32 29.23896 47.96225 482 ft 228 kts 334°
2026-05-08 11:32 29.25338 47.95418 1073 ft 221 kts 333°
2026-05-08 11:32 29.26674 47.94607 1628 ft 215 kts 330°
2026-05-08 11:32 29.28089 47.93738 2269 ft 248 kts 332°
2026-05-08 11:33 29.29733 47.92840 3034 ft 271 kts 335°
2026-05-08 11:33 29.31537 47.91981 3853 ft 288 kts 338°
2026-05-08 11:33 29.33465 47.91200 4703 ft 300 kts 341°
2026-05-08 11:33 29.35483 47.90530 5573 ft 309 kts 345°
2026-05-08 11:34 29.37604 47.89983 6452 ft 315 kts 348°
2026-05-08 11:34 29.39797 47.89708 7391 ft 316 kts
2026-05-08 11:34 29.41819 47.90539 8714 ft 307 kts 34°
2026-05-08 11:34 29.43160 47.92364 10139 ft 298 kts 65°
2026-05-08 11:35 29.43531 47.94668 11355 ft 302 kts 94°
2026-05-08 11:35 29.42837 47.96944 12457 ft 307 kts 124°
2026-05-08 11:35 29.41314 47.98685 13547 ft 312 kts 143°
2026-05-08 11:35 29.39457 48.00032 14395 ft 318 kts 152°
2026-05-08 11:36 29.37880 48.01565 15456 ft 303 kts 118°
2026-05-08 11:36 29.37416 48.03952 16301 ft 321 kts 95°
2026-05-08 11:36 29.36826 48.06508 15863 ft 336 kts 118°
2026-05-08 11:36 29.35591 48.08686 16173 ft 317 kts 116°
2026-05-08 11:37 29.34738 48.11060 16834 ft 330 kts 114°
2026-05-08 11:37 29.33760 48.13457 17453 ft 334 kts 118°
2026-05-08 11:37 29.32815 48.15879 17679 ft 340 kts 107°
2026-05-08 11:37 29.32233 48.18498 17445 ft 339 kts 104°
2026-05-08 11:38 29.31688 48.21121 17191 ft 337 kts 103°
2026-05-08 11:38 29.31134 48.23732 16944 ft 339 kts 104°
2026-05-08 11:38 29.30540 48.26413 16700 ft 356 kts 104°
2026-05-08 11:38 29.29897 48.29220 16461 ft 368 kts 105°
2026-05-08 11:39 29.29241 48.32033 16213 ft 370 kts 105°
2026-05-08 11:39 29.28568 48.34893 15965 ft 370 kts 105°
2026-05-08 11:39 29.27893 48.37741 15712 ft 369 kts 105°
2026-05-08 11:39 29.27218 48.40581 15457 ft 367 kts 105°
2026-05-08 11:40 29.26555 48.43367 15213 ft 366 kts 105°
2026-05-08 11:40 29.25882 48.46188 15176 ft 370 kts 105°
2026-05-08 11:40 29.25202 48.49034 15944 ft 370 kts 105°
2026-05-08 11:40 29.24520 48.51884 16746 ft 372 kts 105°
2026-05-08 11:41 29.23831 48.54762 17448 ft 375 kts 105°
2026-05-08 11:41 29.23136 48.57663 18119 ft 379 kts 105°
2026-05-08 11:41 29.22443 48.60552 18767 ft 382 kts 105°
2026-05-08 11:41 29.21731 48.63515 19419 ft 386 kts 105°
2026-05-08 11:42 29.21013 48.66501 20055 ft 390 kts 105°
2026-05-08 11:42 29.20287 48.69516 20674 ft 394 kts 105°
2026-05-08 11:42 29.19564 48.72514 21261 ft 397 kts 105°
2026-05-08 11:42 29.18824 48.75582 21835 ft 401 kts 105°
2026-05-08 11:43 29.18078 48.78674 22402 ft 404 kts 105°
2026-05-08 11:43 29.17323 48.81794 22944 ft 408 kts 105°
2026-05-08 11:43 29.16562 48.84938 23475 ft 411 kts 105°
2026-05-08 11:43 29.15720 48.88072 23948 ft 414 kts 110°
2026-05-08 11:44 29.14444 48.90995 24401 ft 417 kts 122°
2026-05-08 11:44 29.12643 48.93616 24826 ft 419 kts 134°
2026-05-08 11:44 29.10533 48.95943 25218 ft 422 kts 138°
2026-05-08 11:44 29.08316 48.98163 25583 ft 424 kts 140°
2026-05-08 11:45 29.06043 49.00336 25960 ft 426 kts 140°
2026-05-08 11:45 29.03751 49.02498 26407 ft 426 kts 141°
2026-05-08 11:45 29.01554 49.04698 26874 ft 425 kts 136°
2026-05-08 11:45 28.99487 49.07115 27314 ft 424 kts 134°
2026-05-08 11:46 28.97482 49.09593 27771 ft 423 kts 132°
2026-05-08 11:46 28.95521 49.12099 28226 ft 423 kts 131°
2026-05-08 11:46 28.93576 49.14626 28680 ft 422 kts 131°
2026-05-08 11:46 28.91665 49.17122 29131 ft 421 kts 131°
2026-05-08 11:47 28.89732 49.19643 29586 ft 420 kts 131°
2026-05-08 11:47 28.87803 49.22153 30045 ft 419 kts 131°
2026-05-08 11:47 28.85892 49.24629 30700 ft 412 kts 131°
2026-05-08 11:47 28.84008 49.27064 31366 ft 407 kts 131°
2026-05-08 11:48 28.82133 49.29481 31967 ft 404 kts 131°
2026-05-08 11:48 28.80269 49.31882 32523 ft 403 kts 131°
2026-05-08 11:48 28.78414 49.34269 33061 ft 402 kts 131°
2026-05-08 11:48 28.76586 49.36620 33579 ft 401 kts 131°
2026-05-08 11:49 28.74736 49.38997 34102 ft 400 kts 131°
2026-05-08 11:49 28.72892 49.41367 34615 ft 399 kts 131°
2026-05-08 11:49 28.71051 49.43730 35115 ft 398 kts 131°
2026-05-08 11:49 28.69209 49.46094 35608 ft 397 kts 131°
2026-05-08 11:50 28.67375 49.48448 36075 ft 396 kts 131°
2026-05-08 11:50 28.65542 49.50798 36516 ft 396 kts 131°
2026-05-08 11:50 28.63731 49.53119 36911 ft 396 kts 131°
2026-05-08 11:50 28.61895 49.55469 37293 ft 396 kts 131°
2026-05-08 11:51 28.60064 49.57814 37657 ft 396 kts 131°
2026-05-08 11:51 28.58282 49.60222 37996 ft 396 kts 129°
2026-05-08 11:51 28.56541 49.62671 38316 ft 397 kts 129°
2026-05-08 11:51 28.54827 49.65138 38611 ft 397 kts 128°
2026-05-08 11:52 28.53146 49.67581 38886 ft 397 kts 128°
2026-05-08 11:52 28.51440 49.70066 39149 ft 397 kts 128°
2026-05-08 11:52 28.49737 49.72543 39387 ft 397 kts 128°
2026-05-08 11:52 28.48032 49.75014 39615 ft 397 kts 128°
2026-05-08 11:53 28.46324 49.77484 39833 ft 397 kts 128°
2026-05-08 11:53 28.44617 49.79948 39982 ft 396 kts 128°
2026-05-08 11:53 28.42926 49.82385 40000 ft 398 kts 128°
2026-05-08 11:54 28.39488 49.87332 39999 ft 398 kts 128°
2026-05-08 11:54 28.36053 49.92268 40000 ft 398 kts 128°
2026-05-08 11:55 28.32639 49.97170 39999 ft 398 kts 128°
2026-05-08 11:55 28.29206 50.02093 40000 ft 398 kts 128°
2026-05-08 11:56 28.25768 50.07019 40001 ft 398 kts 128°
2026-05-08 11:56 28.22323 50.11948 40000 ft 398 kts 128°
2026-05-08 11:57 28.18905 50.16833 39999 ft 398 kts 128°
2026-05-08 11:57 28.15462 50.21749 40001 ft 398 kts 128°
2026-05-08 11:58 28.12015 50.26664 40000 ft 398 kts 128°
2026-05-08 11:58 28.08577 50.31561 39999 ft 398 kts 128°
2026-05-08 11:59 28.03400 50.38923 39999 ft 398 kts 129°
2026-05-08 11:59 27.99960 50.43809 39999 ft 398 kts 129°
2026-05-08 12:00 27.96506 50.48709 40003 ft 398 kts 129°
2026-05-08 12:00 27.93045 50.53614 40001 ft 398 kts 129°
2026-05-08 12:01 27.89602 50.58487 40215 ft 399 kts 129°
2026-05-08 12:01 27.87864 50.60945 40427 ft 398 kts 129°
2026-05-08 12:01 27.86130 50.63395 40624 ft 398 kts 129°
2026-05-08 12:02 27.84397 50.65844 40782 ft 397 kts 129°
2026-05-08 12:02 27.82688 50.68257 40930 ft 397 kts 129°
2026-05-08 12:02 27.80958 50.70698 41070 ft 397 kts 129°
2026-05-08 12:02 27.79222 50.73146 41203 ft 397 kts 129°
2026-05-08 12:03 27.77490 50.75587 41326 ft 397 kts 129°
2026-05-08 12:03 27.75755 50.78031 41435 ft 398 kts 129°
2026-05-08 12:03 27.74045 50.80437 41545 ft 398 kts 129°
2026-05-08 12:03 27.72314 50.82873 41638 ft 398 kts 129°
2026-05-08 12:04 27.68845 50.87750 41824 ft 398 kts 129°
2026-05-08 12:04 27.65375 50.92623 41993 ft 398 kts 129°
2026-05-08 12:05 27.61927 50.97459 42140 ft 398 kts 129°
2026-05-08 12:05 27.58454 51.02324 42273 ft 398 kts 129°
2026-05-08 12:06 27.54970 51.07200 42388 ft 398 kts 129°
2026-05-08 12:06 27.51512 51.12035 42491 ft 398 kts 129°
2026-05-08 12:07 27.48031 51.16896 42586 ft 398 kts 129°
2026-05-08 12:07 27.45133 51.20938 42653 ft 398 kts 129°
2026-05-08 12:08 27.41086 51.26577 42738 ft 398 kts 129°
2026-05-08 12:08 27.38167 51.30641 42794 ft 398 kts 129°
2026-05-08 12:09 27.34696 51.35466 42849 ft 398 kts 129°
2026-05-08 12:09 27.31204 51.40316 42914 ft 398 kts 129°
2026-05-08 12:10 27.27727 51.45140 42975 ft 398 kts 129°
2026-05-08 12:10 27.24241 51.49972 43002 ft 396 kts 129°
2026-05-08 12:11 27.20758 51.54793 43002 ft 397 kts 129°
2026-05-08 12:11 27.17283 51.59598 43025 ft 398 kts 129°
2026-05-08 12:12 27.13793 51.64419 43059 ft 398 kts 129°
2026-05-08 12:12 27.10291 51.69250 43091 ft 398 kts 129°
2026-05-08 12:13 27.06811 51.74048 43129 ft 398 kts 129°
2026-05-08 12:13 27.03304 51.78875 43149 ft 398 kts 129°
2026-05-08 12:14 26.99822 51.83664 43171 ft 398 kts 129°
2026-05-08 12:14 26.96306 51.88494 43191 ft 398 kts 129°
2026-05-08 12:15 26.92801 51.93304 43203 ft 398 kts 129°
2026-05-08 12:15 26.89309 51.98091 43232 ft 398 kts 129°
2026-05-08 12:16 26.85801 52.02895 43249 ft 398 kts 129°
2026-05-08 12:16 26.82306 52.07674 43263 ft 398 kts 129°
2026-05-08 12:17 26.78790 52.12479 43275 ft 398 kts 129°
2026-05-08 12:17 26.75291 52.17255 43286 ft 398 kts 129°
2026-05-08 12:18 26.71772 52.22052 43291 ft 398 kts 129°
2026-05-08 12:18 26.68252 52.26846 43292 ft 398 kts 129°
2026-05-08 12:19 26.64751 52.31609 43297 ft 398 kts 129°
2026-05-08 12:19 26.61226 52.36400 43300 ft 398 kts 129°
2026-05-08 12:20 26.57699 52.41188 43306 ft 398 kts 129°
2026-05-08 12:20 26.54196 52.45938 43311 ft 398 kts 129°
2026-05-08 12:21 26.50661 52.50727 43315 ft 398 kts 129°
2026-05-08 12:21 26.47145 52.55486 43319 ft 398 kts 129°
2026-05-08 12:22 26.43611 52.60265 43321 ft 398 kts 129°
2026-05-08 12:22 26.40800 52.65527 43290 ft 398 kts 114°
2026-05-08 12:23 26.38738 52.71270 43290 ft 398 kts 110°
2026-05-08 12:23 26.36835 52.77074 43291 ft 398 kts 110°
2026-05-08 12:24 26.34939 52.82888 43291 ft 398 kts 110°
2026-05-08 12:24 26.33021 52.88686 43295 ft 398 kts 110°
2026-05-08 12:25 26.31098 52.94448 43297 ft 398 kts 110°
2026-05-08 12:25 26.29155 53.00253 43298 ft 398 kts 110°
2026-05-08 12:26 26.27228 53.06003 43299 ft 398 kts 110°
2026-05-08 12:26 26.25286 53.11792 43301 ft 398 kts 110°
2026-05-08 12:27 26.23341 53.17581 43302 ft 398 kts 110°
2026-05-08 12:27 26.21394 53.23367 43303 ft 398 kts 110°
2026-05-08 12:28 26.19453 53.29128 43305 ft 398 kts 110°
2026-05-08 12:28 26.17433 53.34884 43305 ft 398 kts 113°
2026-05-08 12:29 26.15184 53.40489 43304 ft 398 kts 115°
2026-05-08 12:29 26.12862 53.46092 43306 ft 398 kts 115°
2026-05-08 12:30 26.10553 53.51701 43307 ft 398 kts 114°
2026-05-08 12:30 26.08254 53.57334 43309 ft 398 kts 114°
2026-05-08 12:31 26.05974 53.62929 43280 ft 397 kts 114°
2026-05-08 12:31 26.03704 53.68495 43240 ft 397 kts 114°
2026-05-08 12:32 26.02568 53.71274 42803 ft 393 kts 114°
2026-05-08 12:32 26.01435 53.74047 42097 ft 395 kts 114°
2026-05-08 12:32 26.00309 53.76838 41380 ft 397 kts 114°
2026-05-08 12:32 25.99191 53.79661 40686 ft 398 kts 114°
2026-05-08 12:33 25.98084 53.82486 40006 ft 399 kts 114°
2026-05-08 12:33 25.96976 53.85323 39308 ft 400 kts 113°
2026-05-08 12:33 25.95858 53.88186 38331 ft 407 kts 114°
2026-05-08 12:33 25.94728 53.91074 37131 ft 418 kts 114°
2026-05-08 12:34 25.93582 53.93995 35843 ft 402 kts 114°
2026-05-08 12:34 25.92470 53.96825 34606 ft 397 kts 114°
2026-05-08 12:34 25.91329 53.99628 33441 ft 398 kts 115°
2026-05-08 12:34 25.90127 54.02418 32336 ft 400 kts 116°
2026-05-08 12:35 25.88903 54.05178 31262 ft 403 kts 116°
2026-05-08 12:35 25.87650 54.07972 30197 ft 404 kts 116°
2026-05-08 12:35 25.86391 54.10777 29170 ft 404 kts 116°
2026-05-08 12:35 25.85141 54.13566 28203 ft 402 kts 116°
2026-05-08 12:36 25.83903 54.16338 27253 ft 398 kts 116°
2026-05-08 12:36 25.82701 54.19041 26306 ft 392 kts 116°
2026-05-08 12:36 25.81675 54.21825 25427 ft 386 kts 111°
2026-05-08 12:36 25.80738 54.24609 24669 ft 382 kts 110°
2026-05-08 12:37 25.79854 54.27373 23918 ft 377 kts 109°
2026-05-08 12:37 25.79003 54.30108 23165 ft 374 kts 109°
2026-05-08 12:37 25.78155 54.32869 22443 ft 380 kts 109°
2026-05-08 12:37 25.77307 54.35633 21689 ft 374 kts 109°
2026-05-08 12:38 25.76480 54.38319 20952 ft 370 kts 109°
2026-05-08 12:38 25.75649 54.41006 20198 ft 365 kts 109°
2026-05-08 12:38 25.74828 54.43653 19452 ft 361 kts 109°
2026-05-08 12:38 25.74013 54.46272 18688 ft 357 kts 109°
2026-05-08 12:39 25.73203 54.48867 17948 ft 353 kts 109°
2026-05-08 12:39 25.72402 54.51433 17189 ft 350 kts 109°
2026-05-08 12:39 25.71609 54.53969 16438 ft 346 kts 109°
2026-05-08 12:39 25.70824 54.56482 15695 ft 343 kts 109°
2026-05-08 12:40 25.70055 54.58939 14951 ft 339 kts 109°
2026-05-08 12:40 25.69274 54.61399 14203 ft 336 kts 109°
2026-05-08 12:40 25.68496 54.63828 13441 ft 333 kts 109°
2026-05-08 12:40 25.67723 54.66237 12700 ft 330 kts 110°
2026-05-08 12:41 25.66956 54.68624 11946 ft 327 kts 110°
2026-05-08 12:41 25.66195 54.70992 11189 ft 323 kts 110°
2026-05-08 12:41 25.65445 54.73327 10553 ft 317 kts 110°
2026-05-08 12:41 25.64728 54.75557 10247 ft 306 kts 110°
2026-05-08 12:42 25.64036 54.77707 10184 ft 284 kts 110°
2026-05-08 12:42 25.63387 54.79724 10185 ft 273 kts 110°
2026-05-08 12:42 25.62751 54.81698 10189 ft 270 kts 110°
2026-05-08 12:42 25.62121 54.83653 10192 ft 269 kts 110°
2026-05-08 12:43 25.61486 54.85607 10191 ft 269 kts 111°
2026-05-08 12:43 25.60795 54.87506 10115 ft 269 kts 113°
2026-05-08 12:43 25.60054 54.89435 9865 ft 268 kts 113°
2026-05-08 12:43 25.59326 54.91308 9607 ft 267 kts 113°
2026-05-08 12:44 25.58590 54.93194 9367 ft 266 kts 113°
2026-05-08 12:44 25.57857 54.95076 9119 ft 265 kts 113°
2026-05-08 12:44 25.57126 54.96950 8865 ft 264 kts 113°
2026-05-08 12:44 25.56397 54.98818 8615 ft 263 kts 113°
2026-05-08 12:45 25.55683 55.00649 8368 ft 262 kts 113°
2026-05-08 12:45 25.54959 55.02499 8201 ft 261 kts 114°
2026-05-08 12:45 25.54140 55.04291 8187 ft 260 kts 119°
2026-05-08 12:45 25.53250 55.06042 8190 ft 261 kts 120°
2026-05-08 12:46 25.52344 55.07786 8191 ft 261 kts 120°
2026-05-08 12:46 25.51439 55.09524 8190 ft 261 kts 120°
2026-05-08 12:46 25.50534 55.11265 8191 ft 261 kts 120°
2026-05-08 12:46 25.49630 55.13004 8189 ft 261 kts 120°
2026-05-08 12:47 25.48737 55.14722 8194 ft 261 kts 120°
2026-05-08 12:47 25.47831 55.16466 8195 ft 261 kts 120°
2026-05-08 12:47 25.46926 55.18207 8188 ft 261 kts 120°
2026-05-08 12:47 25.45955 55.19902 8194 ft 260 kts 127°
2026-05-08 12:48 25.44794 55.21448 8187 ft 260 kts 131°
2026-05-08 12:48 25.43583 55.22945 8190 ft 260 kts 132°
2026-05-08 12:48 25.42364 55.24433 8186 ft 260 kts 132°
2026-05-08 12:48 25.41163 55.25900 8193 ft 260 kts 132°
2026-05-08 12:49 25.39943 55.27392 8189 ft 260 kts 132°
2026-05-08 12:49 25.38731 55.28878 8195 ft 260 kts 132°
2026-05-08 12:49 25.37512 55.30372 8192 ft 259 kts 132°
2026-05-08 12:49 25.36339 55.31804 8186 ft 245 kts 134°
2026-05-08 12:50 25.35037 55.32973 8190 ft 240 kts 148°
2026-05-08 12:50 25.33612 55.33878 8185 ft 238 kts 152°
2026-05-08 12:50 25.32147 55.34737 8114 ft 238 kts 153°
2026-05-08 12:50 25.30682 55.35585 8055 ft 237 kts 153°
2026-05-08 12:51 25.29223 55.36432 7987 ft 238 kts 153°
2026-05-08 12:51 25.26779 55.37857 7482 ft 236 kts 152°
2026-05-08 12:51 25.25332 55.38702 7145 ft 235 kts 152°
2026-05-08 12:52 25.23427 55.39817 6717 ft 231 kts 152°
2026-05-08 12:52 25.21160 55.41144 6336 ft 208 kts 152°
2026-05-08 12:52 25.19909 55.41876 5904 ft 203 kts 152°
2026-05-08 12:53 25.18669 55.42602 5374 ft 200 kts 152°
2026-05-08 12:53 25.17445 55.43317 4778 ft 198 kts 153°
2026-05-08 12:53 25.16365 55.43948 4228 ft 197 kts 153°
2026-05-08 12:53 25.15154 55.44656 3610 ft 195 kts 153°
2026-05-08 12:54 25.13956 55.45357 2990 ft 194 kts 153°
2026-05-08 12:54 25.12783 55.46042 2456 ft 192 kts 153°
2026-05-08 12:54 25.11634 55.46791 2212 ft 192 kts 143°
2026-05-08 12:54 25.10718 55.47858 2191 ft 191 kts 126°
2026-05-08 12:55 25.09975 55.49100 2195 ft 196 kts 122°
2026-05-08 12:55 25.09257 55.50390 2194 ft 197 kts 122°
2026-05-08 12:55 25.08541 55.51685 2192 ft 198 kts 122°
2026-05-08 12:55 25.07822 55.52984 2194 ft 198 kts 122°
2026-05-08 12:56 25.07243 55.54352 2186 ft 198 kts 100°
2026-05-08 12:56 25.07439 55.55807 2196 ft 197 kts 62°
2026-05-08 12:56 25.08359 55.56913 2195 ft 197 kts 37°
2026-05-08 12:56 25.09493 55.57774 2188 ft 197 kts 33°
2026-05-08 12:57 25.10697 55.58478 2186 ft 197 kts 14°
2026-05-08 12:57 25.12035 55.58356 2188 ft 196 kts 335°
2026-05-08 12:57 25.13135 55.57488 2192 ft 195 kts 318°
2026-05-08 12:57 25.14100 55.56436 2190 ft 195 kts 310°
2026-05-08 12:58 25.14882 55.55209 2194 ft 195 kts 302°
2026-05-08 12:58 25.15579 55.53950 2192 ft 195 kts 301°
2026-05-08 12:58 25.16282 55.52672 2193 ft 195 kts 301°
2026-05-08 12:58 25.16991 55.51396 2190 ft 194 kts 301°
2026-05-08 12:59 25.17696 55.50133 2185 ft 186 kts 301°
2026-05-08 12:59 25.18389 55.48891 2072 ft 196 kts 301°
2026-05-08 12:59 25.19112 55.47583 1796 ft 202 kts 301°
2026-05-08 12:59 25.19835 55.46275 1510 ft 202 kts 301°
2026-05-08 13:00 25.20521 55.45035 1259 ft 176 kts 301°
2026-05-08 13:00 25.21133 55.43928 1019 ft 163 kts 301°
2026-05-08 13:00 25.21720 55.42865 802 ft 160 kts 301°
2026-05-08 13:00 25.22294 55.41828 592 ft 159 kts 301°
2026-05-08 13:01 25.22880 55.40767 377 ft 158 kts 301°
2026-05-08 13:01 25.23447 55.39741 172 ft 159 kts 301°
2026-05-08 13:01 25.24006 55.38730 36 ft 135 kts 301°
2026-05-08 13:01 25.24373 55.38066 34 ft 75 kts 301°
2026-05-08 13:02 25.24566 55.37696 25 ft 41 kts 295°
2026-05-08 13:02 25.24613 55.37460 23 ft 11 kts 269°
2026-05-08 13:02 25.24613 55.37454 23 ft 0 kts 269°
2026-05-08 13:03 25.24611 55.37382 23 ft 21 kts 265°
2026-05-08 13:03 25.24578 55.37233 39 ft 11 kts 214°
2026-05-08 13:03 25.24480 55.37254 43 ft 25 kts 176°
2026-05-08 13:04 25.24427 55.37235 43 ft 9 kts 218°